Paynesville, MN

5:21 AM CST on December 17, 2017 (GMT -0600)
Paynesville

Weather History for KPEX - June, 2012

Change the Weather History Date:

Friday, June 29, 2012

  Actual Average (KLJF) Record (KLJF)
Temperature  
Mean Temperature 70 °F -  
Max Temperature 84 °F 82 °F 114 °F (1997)
Min Temperature 55 °F 59 °F 46 °F (1959)
Cooling Degree Days 4    
Growing Degree Days 20 (Base 50)    
Moisture  
Dew Point 59 °F    
Average Humidity 67    
Maximum Humidity 96    
Minimum Humidity 34    
Precipitation  
Precipitation 0.00 in - - ()
Sea Level Pressure  
Sea Level Pressure 29.88 in    
Wind  
Wind Speed 2 mph (WSW)    
Max Wind Speed 9 mph    
Max Gust Speed -    
Visibility 9 miles    
Events Thunderstorm    
Averages and records for this station are not official NWS values.
T = Trace of Precipitation, MM = Missing Value Source: NWS Daily Summary

Daily Weather History Graph

Daily Weather History Graph

Search for Another Location

Airport or City:

Trip Planner

Search our weather history database for the weather conditions in past years. The results will help you decide how hot, cold, wet, or windy it might be!

Date:

Astronomy

Jun. 29, 2012 Rise Set
Actual Time 5:33 AM CDT 9:11 PM CDT
Civil Twilight 4:56 AM CDT 9:48 PM CDT
Nautical Twilight 4:06 AM CDT 10:38 PM CDT
Astronomical Twilight 2:59 AM CDT 11:45 PM CDT
Moon 4:53 PM CDT (6/29) 1:52 AM CDT (6/29)
Length of Visible Light 16h 52m
Length of Day
15h 37m
Waxing Gibbous, 78% of the Moon is Illuminated
Jun 29
Waxing Gibbous
Jul 3
Full
Jul 10
Last Quarter
Jul 18
New
Jul 26
First Quarter

Hourly Weather History & Observations

Time (CDT) Temp. Heat Index Dew Point Humidity Pressure Visibility Wind Dir Wind Speed Gust Speed Precip Events Conditions
12:14 AM 60.8 °F - 57.2 °F 88% 29.93 in 7.0 mi Calm Calm - N/A   Clear
12:33 AM 59.9 °F - 56.8 °F 90% 29.94 in 10.0 mi Calm Calm - N/A   Clear
12:54 AM 59.2 °F - 56.5 °F 91% 29.93 in 10.0 mi Calm Calm - N/A   Clear
1:13 AM 60.1 °F - 56.5 °F 88% 29.93 in 10.0 mi Calm Calm - N/A   Clear
1:34 AM 60.1 °F - 56.8 °F 89% 29.92 in 10.0 mi Calm Calm - N/A   Clear
1:53 AM 58.5 °F - 55.4 °F 90% 29.92 in 10.0 mi Calm Calm - N/A   Clear
2:13 AM 58.3 °F - 55.2 °F 90% 29.92 in 10.0 mi Calm Calm - N/A   Clear
2:34 AM 58.1 °F - 55.2 °F 90% 29.91 in 10.0 mi Calm Calm - N/A   Clear
2:53 AM 57.0 °F - 54.5 °F 91% 29.91 in 10.0 mi Calm Calm - N/A   Clear
3:13 AM 56.5 °F - 54.5 °F 93% 29.91 in 7.0 mi West 3.5 mph - N/A   Clear
3:34 AM 56.3 °F - 54.0 °F 92% 29.91 in 7.0 mi Calm Calm - N/A   Clear
3:53 AM 56.8 °F - 54.7 °F 92% 29.91 in 7.0 mi Calm Calm - N/A   Clear
4:14 AM 57.2 °F - 55.0 °F 92% 29.91 in 7.0 mi Calm Calm - N/A   Clear
4:33 AM 58.6 °F - 55.2 °F 88% 29.91 in 10.0 mi Calm Calm - N/A   Clear
4:54 AM 57.2 °F - 55.0 °F 92% 29.91 in 10.0 mi Calm Calm - N/A   Clear
5:14 AM 56.8 °F - 54.9 °F 93% 29.91 in 10.0 mi Calm Calm - N/A   Clear
5:34 AM 56.1 °F - 54.9 °F 96% 29.91 in 10.0 mi Calm Calm - N/A   Clear
5:54 AM 55.6 °F - 54.5 °F 96% 29.91 in 10.0 mi Calm Calm - N/A   Clear
6:13 AM 55.4 °F - 54.3 °F 96% 29.91 in 10.0 mi Calm Calm - N/A   Clear
6:33 AM 57.6 °F - 55.8 °F 94% 29.90 in 10.0 mi Calm Calm - N/A   Clear
6:54 AM 59.2 °F - 56.8 °F 92% 29.90 in 10.0 mi Calm Calm - N/A   Clear
7:13 AM 61.5 °F - 58.1 °F 89% 29.91 in 10.0 mi Calm Calm - N/A   Clear
7:33 AM 64.2 °F - 58.6 °F 82% 29.92 in 10.0 mi Calm Calm - N/A   Clear
7:54 AM 67.6 °F - 62.1 °F 82% 29.93 in 10.0 mi Calm Calm - N/A   Clear
8:14 AM 71.8 °F - 57.6 °F 61% 29.92 in 10.0 mi Calm Calm - N/A   Clear
8:33 AM 73.6 °F - 57.9 °F 58% 29.91 in 10.0 mi Calm Calm - N/A   Clear
8:54 AM 75.2 °F - 57.0 °F 53% 29.91 in 7.0 mi Calm Calm - N/A   Clear
9:14 AM 76.5 °F - 55.0 °F 47% 29.89 in 10.0 mi SW 4.6 mph - N/A   Clear
9:33 AM 77.9 °F - 54.1 °F 44% 29.89 in 10.0 mi Calm Calm - N/A   Clear
9:53 AM 79.0 °F - 52.7 °F 40% 29.88 in 7.0 mi SW 3.5 mph - N/A   Clear
10:14 AM 79.7 °F - 52.7 °F 39% 29.89 in 7.0 mi Calm Calm - N/A   Clear
10:34 AM 80.6 °F 80.4 °F 54.3 °F 40% 29.90 in 10.0 mi Calm Calm - N/A   Clear
10:53 AM 81.7 °F - 50.7 °F 34% 29.90 in 10.0 mi SW 5.8 mph - N/A   Clear
11:14 AM 81.7 °F 81.0 °F 53.6 °F 38% 29.90 in 10.0 mi South 8.1 mph - N/A   Clear
11:34 AM 82.4 °F 81.6 °F 54.7 °F 38% 29.90 in 10.0 mi SSW 5.8 mph - N/A   Clear
11:54 AM 82.8 °F - 52.5 °F 35% 29.91 in 10.0 mi SSW 6.9 mph - N/A   Clear
12:14 PM 82.6 °F 81.8 °F 55.0 °F 39% 29.91 in 10.0 mi WSW 8.1 mph - N/A   Clear
12:33 PM 82.4 °F 81.9 °F 56.3 °F 41% 29.92 in 10.0 mi WSW 9.2 mph - N/A Thunderstorm Clear
12:54 PM 82.0 °F 81.6 °F 55.9 °F 41% 29.91 in 10.0 mi West 4.6 mph - N/A   Clear
1:14 PM 83.1 °F 82.4 °F 56.5 °F 40% 29.89 in 10.0 mi West 6.9 mph - N/A   Clear
1:33 PM 83.3 °F 82.1 °F 54.0 °F 36% 29.89 in 10.0 mi West 6.9 mph - N/A   Clear
1:53 PM 83.5 °F 82.8 °F 56.5 °F 40% 29.88 in 10.0 mi West 6.9 mph - N/A   Clear
2:14 PM 83.8 °F 83.3 °F 57.7 °F 41% 29.87 in 10.0 mi WSW 8.1 mph - N/A   Clear
2:34 PM 83.3 °F 83.4 °F 59.7 °F 45% 29.87 in 10.0 mi WSW 6.9 mph - N/A   Clear
2:53 PM 83.3 °F 83.5 °F 60.8 °F 46% 29.86 in 7.0 mi West 6.9 mph - N/A   Clear
3:13 PM 84.4 °F 84.6 °F 61.2 °F 45% 29.86 in 7.0 mi West 6.9 mph - N/A   Clear
3:34 PM 84.4 °F 84.2 °F 59.5 °F 43% 29.86 in 7.0 mi West 8.1 mph - N/A   Clear
3:54 PM 83.7 °F 83.8 °F 60.3 °F 45% 29.85 in 7.0 mi West 6.9 mph - N/A   Clear
4:13 PM 83.8 °F 84.1 °F 61.2 °F 46% 29.85 in 7.0 mi West 6.9 mph - N/A   Clear
4:34 PM 83.8 °F 84.3 °F 61.9 °F 47% 29.85 in 7.0 mi West 5.8 mph - N/A   Clear
4:54 PM 84.2 °F 84.8 °F 61.9 °F 47% 29.85 in 7.0 mi WNW 6.9 mph - N/A   Clear
5:13 PM 83.5 °F 83.7 °F 60.6 °F 46% 29.85 in 7.0 mi WNW 4.6 mph - N/A   Clear
5:34 PM 82.4 °F 83.2 °F 61.9 °F 50% 29.84 in 7.0 mi Calm Calm - N/A   Clear
5:53 PM 82.8 °F 83.4 °F 62.1 °F 49% 29.84 in 7.0 mi West 3.5 mph - N/A   Clear
6:14 PM 81.7 °F 82.7 °F 62.6 °F 52% 29.82 in 7.0 mi NW 3.5 mph - N/A   Clear
6:33 PM 81.3 °F 82.9 °F 64.0 °F 56% 29.82 in 7.0 mi Calm Calm - N/A   Clear
6:53 PM 81.0 °F 82.7 °F 65.1 °F 58% 29.82 in 7.0 mi Calm Calm - N/A   Clear
7:13 PM 81.0 °F 83.0 °F 65.8 °F 60% 29.82 in 5.0 mi WSW 4.6 mph - N/A   Haze
7:33 PM 79.9 °F - 66.9 °F 64% 29.82 in 7.0 mi Calm Calm - N/A   Clear
7:54 PM 78.8 °F - 68.7 °F 71% 29.82 in 5.0 mi Calm Calm - N/A   Haze
8:13 PM 78.1 °F - 67.3 °F 69% 29.82 in 7.0 mi Calm Calm - N/A   Clear
8:34 PM 76.6 °F - 67.8 °F 74% 29.82 in 5.0 mi Calm Calm - N/A   Haze
8:53 PM 76.1 °F - 68.0 °F 76% 29.82 in 7.0 mi SSW 3.5 mph - N/A   Clear
9:14 PM 75.4 °F - 67.3 °F 76% 29.82 in 10.0 mi Calm Calm - N/A   Clear
9:33 PM 73.4 °F - 67.5 °F 82% 29.82 in 10.0 mi Calm Calm - N/A   Clear
9:53 PM 71.8 °F - 67.3 °F 86% 29.83 in 10.0 mi Calm Calm - N/A   Clear
10:14 PM 69.6 °F - 67.3 °F 92% 29.83 in 10.0 mi Calm Calm - N/A   Clear
10:33 PM 68.4 °F - 65.7 °F 91% 29.83 in 10.0 mi Calm Calm - N/A   Clear
10:54 PM 68.0 °F - 65.5 °F 92% 29.84 in 10.0 mi Calm Calm - N/A   Clear
11:33 PM 66.2 °F - 64.6 °F 94% 29.84 in 10.0 mi Calm Calm - N/A   Clear
11:54 PM 68.0 °F - 66.0 °F 93% 29.84 in 10.0 mi Calm Calm - N/A   Clear